Time,TemperatureF,DewpointF,PressureIn,WindDirection,WindDirectionDegrees,WindSpeedMPH,WindSpeedGustMPH,Humidity,HourlyPrecipIn,Conditions,Clouds,dailyrainin,SoftwareType,DateUTC
2013-02-03 00:04:00,65.5,41.8,30.10,East,96,0.0,0.0,42,0.00,,---,0.00,VWS V14.00,2013-02-03 08:04:00,
2013-02-03 00:09:00,65.2,41.5,30.10,East,96,0.0,0.0,42,0.00,,---,0.00,VWS V14.00,2013-02-03 08:09:00,
2013-02-03 00:14:00,65.0,41.4,30.09,East,96,0.0,0.0,42,0.00,,---,0.00,VWS V14.00,2013-02-03 08:14:00,
2013-02-03 00:19:00,64.9,42.5,30.09,East,96,3.0,3.0,44,0.00,,---,0.00,VWS V14.00,2013-02-03 08:19:00,
2013-02-03 00:24:00,64.9,39.4,30.09,East,96,6.0,8.0,39,0.00,,---,0.00,VWS V14.00,2013-02-03 08:24:00,
2013-02-03 00:29:00,65.4,39.2,30.09,East,96,6.0,9.0,38,0.00,,---,0.00,VWS V14.00,2013-02-03 08:29:00,
2013-02-03 00:34:00,65.4,39.8,30.09,East,96,0.0,8.0,39,0.00,,---,0.00,VWS V14.00,2013-02-03 08:34:00,
2013-02-03 00:39:00,65.1,39.5,30.09,East,96,0.0,0.0,39,0.00,,---,0.00,VWS V14.00,2013-02-03 08:39:00,
2013-02-03 00:44:00,64.9,39.4,30.09,East,96,0.0,0.0,39,0.00,,---,0.00,VWS V14.00,2013-02-03 08:44:00,
2013-02-03 00:49:00,64.7,39.8,30.09,East,96,0.0,0.0,40,0.00,,---,0.00,VWS V14.00,2013-02-03 08:49:00,
2013-02-03 00:54:00,64.5,40.9,30.08,East,96,0.0,0.0,42,0.00,,---,0.00,VWS V14.00,2013-02-03 08:54:00,
2013-02-03 00:59:00,64.6,40.4,30.08,East,96,0.0,0.0,41,0.00,,---,0.00,VWS V14.00,2013-02-03 08:59:00,
2013-02-03 01:04:00,64.8,39.3,30.08,East,96,0.0,0.0,39,0.00,,---,0.00,VWS V14.00,2013-02-03 09:04:00,
2013-02-03 01:09:00,64.9,38.7,30.08,East,96,0.0,0.0,38,0.00,,---,0.00,VWS V14.00,2013-02-03 09:09:00,
2013-02-03 01:15:00,65.0,38.1,30.08,East,96,0.0,0.0,37,0.00,,---,0.00,VWS V14.00,2013-02-03 09:15:00,
2013-02-03 01:20:00,65.0,38.1,30.08,East,96,0.0,0.0,37,0.00,,---,0.00,VWS V14.00,2013-02-03 09:20:00,
2013-02-03 01:25:00,65.2,37.6,30.07,East,96,0.0,0.0,36,0.00,,---,0.00,VWS V14.00,2013-02-03 09:25:00,
2013-02-03 01:30:00,65.1,39.5,30.07,East,96,0.0,0.0,39,0.00,,---,0.00,VWS V14.00,2013-02-03 09:30:00,
2013-02-03 01:35:00,64.8,39.3,30.07,East,96,0.0,0.0,39,0.00,,---,0.00,VWS V14.00,2013-02-03 09:35:00,
2013-02-03 01:40:00,64.6,38.4,30.06,East,96,2.0,9.0,38,0.00,,---,0.00,VWS V14.00,2013-02-03 09:40:00,
2013-02-03 01:45:00,64.9,36.6,30.06,East,96,2.0,6.0,35,0.00,,---,0.00,VWS V14.00,2013-02-03 09:45:00,
2013-02-03 01:50:00,65.2,36.2,30.06,East,96,2.0,7.0,34,0.00,,---,0.00,VWS V14.00,2013-02-03 09:50:00,
2013-02-03 01:55:00,65.7,35.8,30.05,East,96,3.0,6.0,33,0.00,,---,0.00,VWS V14.00,2013-02-03 09:55:00,
2013-02-03 02:00:00,65.7,37.3,30.06,East,96,0.0,6.0,35,0.00,,---,0.00,VWS V14.00,2013-02-03 10:00:00,
2013-02-03 02:05:00,65.4,37.8,30.05,East,96,0.0,2.0,36,0.00,,---,0.00,VWS V14.00,2013-02-03 10:05:00,
2013-02-03 02:10:00,65.1,37.5,30.05,East,96,0.0,0.0,36,0.00,,---,0.00,VWS V14.00,2013-02-03 10:10:00,
2013-02-03 02:15:00,65.0,37.4,30.05,East,96,0.0,0.0,36,0.00,,---,0.00,VWS V14.00,2013-02-03 10:15:00,
2013-02-03 02:20:00,65.0,36.7,30.06,East,96,0.0,0.0,35,0.00,,---,0.00,VWS V14.00,2013-02-03 10:20:00,
2013-02-03 02:25:00,65.2,36.9,30.06,East,96,0.0,0.0,35,0.00,,---,0.00,VWS V14.00,2013-02-03 10:25:00,
2013-02-03 02:30:00,65.3,37.0,30.06,East,96,0.0,0.0,35,0.00,,---,0.00,VWS V14.00,2013-02-03 10:30:00,
2013-02-03 02:35:00,64.9,39.4,30.05,East,96,0.0,0.0,39,0.00,,---,0.00,VWS V14.00,2013-02-03 10:35:00,
2013-02-03 02:40:00,64.4,41.4,30.05,East,96,0.0,0.0,43,0.00,,---,0.00,VWS V14.00,2013-02-03 10:40:00,
2013-02-03 02:45:00,64.0,41.1,30.06,East,96,0.0,0.0,43,0.00,,---,0.00,VWS V14.00,2013-02-03 10:45:00,
2013-02-03 02:50:00,63.8,42.1,30.05,East,96,0.0,0.0,45,0.00,,---,0.00,VWS V14.00,2013-02-03 10:50:00,
2013-02-03 02:55:00,63.7,40.8,30.05,East,96,2.0,7.0,43,0.00,,---,0.00,VWS V14.00,2013-02-03 10:55:00,
2013-02-03 03:00:00,63.5,42.4,30.06,East,96,2.0,9.0,46,0.00,,---,0.00,VWS V14.00,2013-02-03 11:00:00,
2013-02-03 03:05:00,63.5,41.2,30.05,East,91,6.0,13.0,44,0.00,,---,0.00,VWS V14.00,2013-02-03 11:05:00,
2013-02-03 03:10:00,63.5,41.2,30.05,East,91,5.0,10.0,44,0.00,,---,0.00,VWS V14.00,2013-02-03 11:10:00,
2013-02-03 03:15:00,63.5,42.4,30.05,East,91,0.0,5.0,46,0.00,,---,0.00,VWS V14.00,2013-02-03 11:15:00,
2013-02-03 03:20:00,63.3,42.8,30.05,East,91,0.0,0.0,47,0.00,,---,0.00,VWS V14.00,2013-02-03 11:20:00,
2013-02-03 03:25:00,63.2,42.1,30.05,East,91,6.0,9.0,46,0.00,,---,0.00,VWS V14.00,2013-02-03 11:25:00,
2013-02-03 03:30:00,63.7,40.2,30.05,East,91,5.0,9.0,42,0.00,,---,0.00,VWS V14.00,2013-02-03 11:30:00,
2013-02-03 03:35:00,64.1,39.9,30.05,East,91,2.0,7.0,41,0.00,,---,0.00,VWS V14.00,2013-02-03 11:35:00,
2013-02-03 03:40:00,64.3,40.7,30.05,East,91,0.0,0.0,42,0.00,,---,0.00,VWS V14.00,2013-02-03 11:40:00,
2013-02-03 03:45:00,64.5,40.9,30.05,East,91,0.0,0.0,42,0.00,,---,0.00,VWS V14.00,2013-02-03 11:45:00,
2013-02-03 03:50:00,64.4,40.2,30.05,East,91,1.0,2.0,41,0.00,,---,0.00,VWS V14.00,2013-02-03 11:50:00,
2013-02-03 03:55:00,64.6,40.4,30.05,East,91,0.0,10.0,41,0.00,,---,0.00,VWS V14.00,2013-02-03 11:55:00,
2013-02-03 04:00:00,64.7,41.7,30.05,East,91,0.0,2.0,43,0.00,,---,0.00,VWS V14.00,2013-02-03 12:00:00,
2013-02-03 04:05:00,64.5,40.3,30.05,East,91,2.0,8.0,41,0.00,,---,0.00,VWS V14.00,2013-02-03 12:05:00,
2013-02-03 04:10:00,64.7,40.5,30.05,East,91,2.0,11.0,41,0.00,,---,0.00,VWS V14.00,2013-02-03 12:10:00,
2013-02-03 04:15:00,64.8,39.9,30.05,East,91,2.0,9.0,40,0.00,,---,0.00,VWS V14.00,2013-02-03 12:15:00,
2013-02-03 04:20:00,64.7,40.5,30.05,East,84,6.0,16.0,41,0.00,,---,0.00,VWS V14.00,2013-02-03 12:20:00,
2013-02-03 04:25:00,64.6,40.4,30.06,East,84,0.0,7.0,41,0.00,,---,0.00,VWS V14.00,2013-02-03 12:25:00,
2013-02-03 04:30:00,64.3,40.7,30.06,East,84,2.0,9.0,42,0.00,,---,0.00,VWS V14.00,2013-02-03 12:30:00,
2013-02-03 04:35:00,64.0,41.1,30.06,ENE,68,13.0,17.0,43,0.00,,---,0.00,VWS V14.00,2013-02-03 12:35:00,
2013-02-03 04:40:00,64.0,40.5,30.06,North,9,10.0,18.0,42,0.00,,---,0.00,VWS V14.00,2013-02-03 12:40:00,
2013-02-03 04:45:00,63.8,40.9,30.06,NNW,344,14.0,20.0,43,0.00,,---,0.00,VWS V14.00,2013-02-03 12:45:00,
2013-02-03 04:50:00,63.8,40.9,30.06,NNW,332,16.0,20.0,43,0.00,,---,0.00,VWS V14.00,2013-02-03 12:50:00,
2013-02-03 04:55:00,63.9,40.4,30.07,NW,323,12.0,21.0,42,0.00,,---,0.00,VWS V14.00,2013-02-03 12:55:00,
2013-02-03 05:00:00,64.0,40.5,30.06,NW,323,14.0,19.0,42,0.00,,---,0.00,VWS V14.00,2013-02-03 13:00:00,
2013-02-03 05:05:00,64.0,40.5,30.06,NW,323,12.0,16.0,42,0.00,,---,0.00,VWS V14.00,2013-02-03 13:05:00,
2013-02-03 05:10:00,64.0,40.5,30.06,NW,323,12.0,19.0,42,0.00,,---,0.00,VWS V14.00,2013-02-03 13:10:00,
2013-02-03 05:15:00,63.8,40.3,30.07,NW,323,7.0,14.0,42,0.00,,---,0.00,VWS V14.00,2013-02-03 13:15:00,
2013-02-03 05:20:00,63.5,42.4,30.07,WNW,290,10.0,26.0,46,0.00,,---,0.00,VWS V14.00,2013-02-03 13:20:00,
2013-02-03 05:25:00,62.3,44.0,30.07,WNW,284,16.0,29.0,51,0.00,,---,0.00,VWS V14.00,2013-02-03 13:25:00,
2013-02-03 05:30:00,61.8,44.0,30.07,NW,306,10.0,23.0,52,0.00,,---,0.00,VWS V14.00,2013-02-03 13:30:00,
2013-02-03 05:35:00,61.6,44.3,30.06,NNW,328,13.0,29.0,53,0.00,,---,0.00,VWS V14.00,2013-02-03 13:35:00,
2013-02-03 05:40:00,61.7,44.4,30.06,NNW,344,6.0,17.0,53,0.00,,---,0.00,VWS V14.00,2013-02-03 13:40:00,
2013-02-03 05:45:00,61.9,43.6,30.06,NNW,348,6.0,20.0,51,0.00,,---,0.00,VWS V14.00,2013-02-03 13:45:00,
2013-02-03 05:50:00,62.1,44.3,30.06,NNW,348,3.0,13.0,52,0.00,,---,0.00,VWS V14.00,2013-02-03 13:50:00,
2013-02-03 05:55:00,62.6,41.5,30.05,North,349,3.0,15.0,46,0.00,,---,0.00,VWS V14.00,2013-02-03 13:55:00,
2013-02-03 06:00:00,63.1,40.9,30.05,North,360,7.0,20.0,44,0.00,,---,0.00,VWS V14.00,2013-02-03 14:00:00,
2013-02-03 06:05:00,63.6,40.7,30.04,NNE,19,15.0,21.0,43,0.00,,---,0.00,VWS V14.00,2013-02-03 14:05:00,
2013-02-03 06:10:00,63.8,40.3,30.04,NNE,22,11.0,20.0,42,0.00,,---,0.00,VWS V14.00,2013-02-03 14:10:00,
2013-02-03 06:15:00,63.8,40.3,30.05,NNE,26,19.0,22.0,42,0.00,,---,0.00,VWS V14.00,2013-02-03 14:15:00,
2013-02-03 06:20:00,63.8,40.3,30.05,NNE,12,7.0,18.0,42,0.00,,---,0.00,VWS V14.00,2013-02-03 14:20:00,
2013-02-03 06:25:00,63.6,40.1,30.05,NNE,12,5.0,7.0,42,0.00,,---,0.00,VWS V14.00,2013-02-03 14:25:00,
2013-02-03 06:30:00,63.0,41.9,30.06,North,11,0.0,10.0,46,0.00,,---,0.00,VWS V14.00,2013-02-03 14:30:00,
2013-02-03 06:35:00,62.3,41.8,30.05,North,11,0.0,4.0,47,0.00,,---,0.00,VWS V14.00,2013-02-03 14:35:00,
2013-02-03 06:40:00,61.9,42.5,30.05,North,11,0.0,0.0,49,0.00,,---,0.00,VWS V14.00,2013-02-03 14:40:00,
2013-02-03 06:45:00,61.8,42.5,30.05,North,11,0.0,0.0,49,0.00,,---,0.00,VWS V14.00,2013-02-03 14:45:00,
2013-02-03 06:50:00,62.0,41.6,30.05,North,11,0.0,4.0,47,0.00,,---,0.00,VWS V14.00,2013-02-03 14:50:00,
2013-02-03 06:55:00,62.3,41.3,30.05,North,11,0.0,4.0,46,0.00,,---,0.00,VWS V14.00,2013-02-03 14:55:00,
2013-02-03 07:00:00,62.2,41.2,30.05,North,11,3.0,8.0,46,0.00,,---,0.00,VWS V14.00,2013-02-03 15:00:00,
2013-02-03 07:05:00,62.1,42.2,30.05,North,11,1.0,8.0,48,0.00,,---,0.00,VWS V14.00,2013-02-03 15:05:00,
2013-02-03 07:10:00,61.7,42.4,30.06,North,11,3.0,6.0,49,0.00,,---,0.00,VWS V14.00,2013-02-03 15:10:00,
2013-02-03 07:15:00,61.6,41.7,30.06,North,11,0.0,4.0,48,0.00,,---,0.00,VWS V14.00,2013-02-03 15:15:00,
2013-02-03 07:20:00,61.7,41.8,30.06,North,11,0.0,9.0,48,0.00,,---,0.00,VWS V14.00,2013-02-03 15:20:00,
2013-02-03 07:25:00,61.3,42.0,30.06,North,11,0.0,4.0,49,0.00,,---,0.00,VWS V14.00,2013-02-03 15:25:00,
2013-02-03 07:30:00,60.9,42.2,30.06,North,11,2.0,5.0,50,0.00,,---,0.00,VWS V14.00,2013-02-03 15:30:00,
2013-02-03 07:35:00,60.8,41.5,30.06,North,11,1.0,5.0,49,0.00,,---,0.00,VWS V14.00,2013-02-03 15:35:00,
2013-02-03 07:40:00,61.2,41.4,30.06,North,11,0.0,6.0,48,0.00,,---,0.00,VWS V14.00,2013-02-03 15:40:00,
2013-02-03 07:45:00,61.3,41.5,30.06,North,11,0.0,0.0,48,0.00,,---,0.00,VWS V14.00,2013-02-03 15:45:00,
2013-02-03 07:50:00,61.2,41.9,30.06,North,11,0.0,0.0,49,0.00,,---,0.00,VWS V14.00,2013-02-03 15:50:00,
2013-02-03 07:55:00,61.7,41.8,30.06,North,11,2.0,3.0,48,0.00,,---,0.00,VWS V14.00,2013-02-03 15:55:00,
2013-02-03 08:00:00,63.2,41.5,30.06,NNE,23,2.0,8.0,45,0.00,,---,0.00,VWS V14.00,2013-02-03 16:00:00,
2013-02-03 08:05:00,63.9,42.7,30.06,NNE,24,0.0,7.0,46,0.00,,---,0.00,VWS V14.00,2013-02-03 16:05:00,
2013-02-03 08:10:00,63.8,42.6,30.06,NNE,24,0.0,7.0,46,0.00,,---,0.00,VWS V14.00,2013-02-03 16:10:00,
2013-02-03 08:15:00,63.6,42.5,30.06,NNE,24,3.0,4.0,46,0.00,,---,0.00,VWS V14.00,2013-02-03 16:15:00,
2013-02-03 08:20:00,63.4,42.3,30.07,NNE,24,3.0,5.0,46,0.00,,---,0.00,VWS V14.00,2013-02-03 16:20:00,
2013-02-03 08:25:00,63.4,42.3,30.07,NNE,24,2.0,5.0,46,0.00,,---,0.00,VWS V14.00,2013-02-03 16:25:00,
2013-02-03 08:30:00,63.6,42.5,30.07,NNE,24,0.0,4.0,46,0.00,,---,0.00,VWS V14.00,2013-02-03 16:30:00,
2013-02-03 08:35:00,64.3,43.1,30.07,NNE,24,0.0,0.0,46,0.00,,---,0.00,VWS V14.00,2013-02-03 16:35:00,
2013-02-03 08:40:00,64.8,42.4,30.07,NNE,24,0.0,0.0,44,0.00,,---,0.00,VWS V14.00,2013-02-03 16:40:00,
2013-02-03 08:45:00,65.1,42.1,30.07,NNE,24,0.0,0.0,43,0.00,,---,0.00,VWS V14.00,2013-02-03 16:45:00,
2013-02-03 08:50:00,65.2,42.8,30.07,NNE,24,0.0,0.0,44,0.00,,---,0.00,VWS V14.00,2013-02-03 16:50:00,
2013-02-03 08:55:00,65.3,41.6,30.07,NNE,24,0.0,0.0,42,0.00,,---,0.00,VWS V14.00,2013-02-03 16:55:00,
2013-02-03 09:00:00,65.5,41.8,30.07,NNE,24,0.0,0.0,42,0.00,,---,0.00,VWS V14.00,2013-02-03 17:00:00,
2013-02-03 09:05:00,65.7,42.0,30.07,NNE,24,0.0,0.0,42,0.00,,---,0.00,VWS V14.00,2013-02-03 17:05:00,
2013-02-03 09:10:00,66.3,41.9,30.07,NNE,24,0.0,0.0,41,0.00,,---,0.00,VWS V14.00,2013-02-03 17:10:00,
2013-02-03 09:15:00,66.8,41.7,30.07,NNE,24,0.0,0.0,40,0.00,,---,0.00,VWS V14.00,2013-02-03 17:15:00,
2013-02-03 09:21:00,66.9,41.8,30.07,NE,39,5.0,6.0,40,0.00,,---,0.00,VWS V14.00,2013-02-03 17:21:00,
2013-02-03 09:26:00,66.5,42.1,30.07,NE,39,2.0,4.0,41,0.00,,---,0.00,VWS V14.00,2013-02-03 17:26:00,
2013-02-03 09:31:00,66.1,41.7,30.07,NE,39,3.0,4.0,41,0.00,,---,0.00,VWS V14.00,2013-02-03 17:31:00,
2013-02-03 09:36:00,66.2,41.8,30.07,NE,39,1.0,6.0,41,0.00,,---,0.00,VWS V14.00,2013-02-03 17:36:00,
2013-02-03 09:41:00,66.3,41.9,30.07,NE,39,1.0,5.0,41,0.00,,---,0.00,VWS V14.00,2013-02-03 17:41:00,
2013-02-03 09:46:00,66.8,42.4,30.07,NE,39,0.0,6.0,41,0.00,,---,0.00,VWS V14.00,2013-02-03 17:46:00,
2013-02-03 09:51:00,67.4,42.3,30.07,NE,39,2.0,7.0,40,0.00,,---,0.00,VWS V14.00,2013-02-03 17:51:00,
2013-02-03 09:56:00,67.6,41.8,30.07,NE,36,0.0,9.0,39,0.00,,---,0.00,VWS V14.00,2013-02-03 17:56:00,
2013-02-03 10:01:00,67.8,41.3,30.07,NE,36,0.0,0.0,38,0.00,,---,0.00,VWS V14.00,2013-02-03 18:01:00,
2013-02-03 10:06:00,68.0,41.5,30.07,NE,36,0.0,9.0,38,0.00,,---,0.00,VWS V14.00,2013-02-03 18:06:00,
2013-02-03 10:11:00,68.6,42.0,30.07,NNE,18,4.0,5.0,38,0.00,,---,0.00,VWS V14.00,2013-02-03 18:11:00,
2013-02-03 10:16:00,69.0,41.7,30.07,NNE,30,0.0,4.0,37,0.00,,---,0.00,VWS V14.00,2013-02-03 18:16:00,
2013-02-03 10:21:00,69.4,42.0,30.07,NNE,28,1.0,10.0,37,0.00,,---,0.00,VWS V14.00,2013-02-03 18:21:00,
2013-02-03 10:26:00,69.0,41.0,30.07,North,5,0.0,12.0,36,0.00,,---,0.00,VWS V14.00,2013-02-03 18:26:00,
2013-02-03 10:31:00,69.2,41.8,30.07,North,360,2.0,9.0,37,0.00,,---,0.00,VWS V14.00,2013-02-03 18:31:00,
2013-02-03 10:36:00,69.6,41.5,30.06,North,360,0.0,9.0,36,0.00,,---,0.00,VWS V14.00,2013-02-03 18:36:00,
2013-02-03 10:41:00,69.6,41.5,30.06,North,360,7.0,12.0,36,0.00,,---,0.00,VWS V14.00,2013-02-03 18:41:00,
2013-02-03 10:46:00,69.6,41.5,30.06,North,360,4.0,8.0,36,0.00,,---,0.00,VWS V14.00,2013-02-03 18:46:00,
2013-02-03 10:51:00,70.1,41.9,30.06,North,350,4.0,14.0,36,0.00,,---,0.00,VWS V14.00,2013-02-03 18:51:00,
2013-02-03 10:56:00,70.1,41.9,30.05,North,349,0.0,10.0,36,0.00,,---,0.00,VWS V14.00,2013-02-03 18:56:00,
2013-02-03 11:01:00,70.5,41.6,30.05,North,349,2.0,9.0,35,0.00,,---,0.00,VWS V14.00,2013-02-03 19:01:00,
2013-02-03 11:06:00,70.8,41.8,30.05,NW,312,6.0,17.0,35,0.00,,---,0.00,VWS V14.00,2013-02-03 19:06:00,
2013-02-03 11:11:00,71.1,42.1,30.04,WNW,296,9.0,16.0,35,0.00,,---,0.00,VWS V14.00,2013-02-03 19:11:00,
2013-02-03 11:16:00,72.0,42.1,30.04,NNE,19,7.0,16.0,34,0.00,,---,0.00,VWS V14.00,2013-02-03 19:16:00,
2013-02-03 11:21:00,72.0,41.3,30.04,NNE,13,0.0,15.0,33,0.00,,---,0.00,VWS V14.00,2013-02-03 19:21:00,
2013-02-03 11:26:00,72.2,41.5,30.03,NE,49,2.0,24.0,33,0.00,,---,0.00,VWS V14.00,2013-02-03 19:26:00,
2013-02-03 11:31:00,71.8,42.0,30.03,ENE,77,3.0,14.0,34,0.00,,---,0.00,VWS V14.00,2013-02-03 19:31:00,
2013-02-03 11:36:00,71.7,41.1,30.02,ENE,69,17.0,22.0,33,0.00,,---,0.00,VWS V14.00,2013-02-03 19:36:00,
2013-02-03 11:41:00,71.7,41.1,30.02,ENE,61,7.0,23.0,33,0.00,,---,0.00,VWS V14.00,2013-02-03 19:41:00,
2013-02-03 11:46:00,72.2,41.5,30.01,ENE,71,5.0,19.0,33,0.00,,---,0.00,VWS V14.00,2013-02-03 19:46:00,
2013-02-03 11:51:00,72.6,41.9,30.01,West,281,12.0,22.0,33,0.00,,---,0.00,VWS V14.00,2013-02-03 19:51:00,
2013-02-03 11:56:00,72.5,41.8,30.01,West,273,0.0,15.0,33,0.00,,---,0.00,VWS V14.00,2013-02-03 19:56:00,
2013-02-03 12:01:00,72.4,41.7,30.01,West,272,2.0,3.0,33,0.00,,---,0.00,VWS V14.00,2013-02-03 20:01:00,
2013-02-03 12:06:00,72.6,41.9,30.01,West,272,4.0,6.0,33,0.00,,---,0.00,VWS V14.00,2013-02-03 20:06:00,
2013-02-03 12:11:00,73.3,42.5,30.00,North,5,4.0,12.0,33,0.00,,---,0.00,VWS V14.00,2013-02-03 20:11:00,
2013-02-03 12:16:00,73.6,42.0,30.00,NNE,30,7.0,18.0,32,0.00,,---,0.00,VWS V14.00,2013-02-03 20:16:00,
2013-02-03 12:21:00,72.2,41.5,29.99,NNE,31,2.0,26.0,33,0.00,,---,0.00,VWS V14.00,2013-02-03 20:21:00,
2013-02-03 12:26:00,71.6,41.8,29.99,NE,46,8.0,23.0,34,0.00,,---,0.00,VWS V14.00,2013-02-03 20:26:00,
2013-02-03 12:31:00,71.3,41.5,29.99,ENE,63,9.0,24.0,34,0.00,,---,0.00,VWS V14.00,2013-02-03 20:31:00,
2013-02-03 12:36:00,71.2,41.4,29.99,NNE,14,16.0,20.0,34,0.00,,---,0.00,VWS V14.00,2013-02-03 20:36:00,
2013-02-03 12:41:00,71.3,41.5,29.99,NNW,347,10.0,18.0,34,0.00,,---,0.00,VWS V14.00,2013-02-03 20:41:00,
2013-02-03 12:46:00,71.5,42.4,29.99,NNE,29,7.0,22.0,35,0.00,,---,0.00,VWS V14.00,2013-02-03 20:46:00,
2013-02-03 12:51:00,72.1,42.2,29.99,NNE,20,11.0,14.0,34,0.00,,---,0.00,VWS V14.00,2013-02-03 20:51:00,
2013-02-03 12:56:00,72.3,42.4,29.98,North,350,10.0,23.0,34,0.00,,---,0.00,VWS V14.00,2013-02-03 20:56:00,
2013-02-03 13:01:00,72.6,41.9,29.98,NE,37,8.0,18.0,33,0.00,,---,0.00,VWS V14.00,2013-02-03 21:01:00,
2013-02-03 13:06:00,72.4,42.5,29.98,NE,54,6.0,15.0,34,0.00,,---,0.00,VWS V14.00,2013-02-03 21:06:00,
2013-02-03 13:11:00,72.2,41.5,29.97,NNW,348,10.0,21.0,33,0.00,,---,0.00,VWS V14.00,2013-02-03 21:11:00,
2013-02-03 13:16:00,72.4,42.5,29.97,NW,305,4.0,4.0,34,0.00,,---,0.00,VWS V14.00,2013-02-03 21:16:00,
2013-02-03 13:21:00,72.5,41.8,29.97,WNW,299,6.0,16.0,33,0.00,,---,0.00,VWS V14.00,2013-02-03 21:21:00,
2013-02-03 13:26:00,73.0,42.2,29.96,WNW,299,2.0,8.0,33,0.00,,---,0.00,VWS V14.00,2013-02-03 21:26:00,
2013-02-03 13:31:00,73.1,41.5,29.96,WNW,299,0.0,7.0,32,0.00,,---,0.00,VWS V14.00,2013-02-03 21:31:00,
2013-02-03 13:36:00,73.2,41.6,29.96,North,360,9.0,24.0,32,0.00,,---,0.00,VWS V14.00,2013-02-03 21:36:00,
2013-02-03 13:41:00,73.3,41.7,29.95,NNE,12,5.0,6.0,32,0.00,,---,0.00,VWS V14.00,2013-02-03 21:41:00,
2013-02-03 13:46:00,73.5,41.0,29.95,North,355,21.0,21.0,31,0.00,,---,0.00,VWS V14.00,2013-02-03 21:46:00,
2013-02-03 13:51:00,73.4,41.8,29.95,NNE,15,6.0,9.0,32,0.00,,---,0.00,VWS V14.00,2013-02-03 21:51:00,
2013-02-03 13:56:00,73.6,41.1,29.94,NNE,17,25.0,31.0,31,0.00,,---,0.00,VWS V14.00,2013-02-03 21:56:00,
2013-02-03 14:01:00,73.6,41.1,29.95,NNE,22,3.0,9.0,31,0.00,,---,0.00,VWS V14.00,2013-02-03 22:01:00,
2013-02-03 14:06:00,73.7,41.2,29.95,NNE,28,12.0,18.0,31,0.00,,---,0.00,VWS V14.00,2013-02-03 22:06:00,
2013-02-03 14:11:00,73.7,41.2,29.94,NW,311,14.0,14.0,31,0.00,,---,0.00,VWS V14.00,2013-02-03 22:11:00,
2013-02-03 14:16:00,73.3,41.7,29.95,WSW,240,9.0,9.0,32,0.00,,---,0.00,VWS V14.00,2013-02-03 22:16:00,
2013-02-03 14:21:00,73.1,42.3,29.95,SW,236,18.0,23.0,33,0.00,,---,0.00,VWS V14.00,2013-02-03 22:21:00,
2013-02-03 14:26:00,73.0,42.2,29.95,WSW,248,14.0,17.0,33,0.00,,---,0.00,VWS V14.00,2013-02-03 22:26:00,
2013-02-03 14:31:00,73.1,42.3,29.95,SW,234,16.0,19.0,33,0.00,,---,0.00,VWS V14.00,2013-02-03 22:31:00,
2013-02-03 14:36:00,73.2,42.4,29.95,WSW,250,20.0,21.0,33,0.00,,---,0.00,VWS V14.00,2013-02-03 22:36:00,
2013-02-03 14:41:00,73.0,42.2,29.95,SW,221,7.0,16.0,33,0.00,,---,0.00,VWS V14.00,2013-02-03 22:41:00,
2013-02-03 14:46:00,72.9,42.1,29.95,SW,236,16.0,20.0,33,0.00,,---,0.00,VWS V14.00,2013-02-03 22:46:00,
2013-02-03 14:51:00,72.5,41.8,29.95,WSW,245,14.0,14.0,33,0.00,,---,0.00,VWS V14.00,2013-02-03 22:51:00,
2013-02-03 14:56:00,72.8,42.0,29.95,WSW,238,11.0,12.0,33,0.00,,---,0.00,VWS V14.00,2013-02-03 22:56:00,
2013-02-03 15:01:00,72.8,42.0,29.95,West,264,10.0,10.0,33,0.00,,---,0.00,VWS V14.00,2013-02-03 23:01:00,
2013-02-03 15:06:00,72.9,42.1,29.95,WSW,245,17.0,18.0,33,0.00,,---,0.00,VWS V14.00,2013-02-03 23:06:00,
2013-02-03 15:11:00,72.9,42.1,29.95,WSW,240,5.0,8.0,33,0.00,,---,0.00,VWS V14.00,2013-02-03 23:11:00,
2013-02-03 15:16:00,72.7,42.0,29.95,SW,236,12.0,13.0,33,0.00,,---,0.00,VWS V14.00,2013-02-03 23:16:00,
2013-02-03 15:21:00,72.7,42.0,29.95,West,263,4.0,6.0,33,0.00,,---,0.00,VWS V14.00,2013-02-03 23:21:00,
2013-02-03 15:26:00,72.6,41.9,29.95,West,259,7.0,12.0,33,0.00,,---,0.00,VWS V14.00,2013-02-03 23:26:00,
2013-02-03 15:31:00,72.4,41.7,29.95,WSW,258,9.0,10.0,33,0.00,,---,0.00,VWS V14.00,2013-02-03 23:31:00,
2013-02-03 15:36:00,72.2,42.3,29.95,WSW,255,8.0,8.0,34,0.00,,---,0.00,VWS V14.00,2013-02-03 23:36:00,
2013-02-03 15:41:00,71.9,42.0,29.95,WSW,255,6.0,9.0,34,0.00,,---,0.00,VWS V14.00,2013-02-03 23:41:00,
2013-02-03 15:46:00,71.9,42.0,29.95,WSW,255,5.0,8.0,34,0.00,,---,0.00,VWS V14.00,2013-02-03 23:46:00,
2013-02-03 15:51:00,71.9,42.0,29.95,WSW,255,3.0,6.0,34,0.00,,---,0.00,VWS V14.00,2013-02-03 23:51:00,
2013-02-03 15:56:00,71.9,42.0,29.95,WSW,255,9.0,10.0,34,0.00,,---,0.00,VWS V14.00,2013-02-03 23:56:00,
2013-02-03 16:01:00,71.7,41.9,29.96,WSW,255,2.0,4.0,34,0.00,,---,0.00,VWS V14.00,2013-02-04 00:01:00,
2013-02-03 16:06:00,71.6,42.5,29.96,WSW,255,7.0,9.0,35,0.00,,---,0.00,VWS V14.00,2013-02-04 00:06:00,
2013-02-03 16:12:00,71.5,42.4,29.95,WSW,255,0.0,0.0,35,0.00,,---,0.00,VWS V14.00,2013-02-04 00:12:00,
2013-02-03 16:17:00,71.3,41.5,29.95,WSW,255,6.0,10.0,34,0.00,,---,0.00,VWS V14.00,2013-02-04 00:17:00,
2013-02-03 16:22:00,71.2,42.2,29.95,WSW,255,0.0,0.0,35,0.00,,---,0.00,VWS V14.00,2013-02-04 00:22:00,
2013-02-03 16:27:00,71.1,42.1,29.95,WSW,255,4.0,4.0,35,0.00,,---,0.00,VWS V14.00,2013-02-04 00:27:00,
2013-02-03 16:32:00,71.0,42.0,29.95,WSW,255,1.0,4.0,35,0.00,,---,0.00,VWS V14.00,2013-02-04 00:32:00,
2013-02-03 16:37:00,71.0,42.0,29.95,WSW,255,0.0,0.0,35,0.00,,---,0.00,VWS V14.00,2013-02-04 00:37:00,
2013-02-03 16:42:00,70.8,41.8,29.95,WSW,255,0.0,0.0,35,0.00,,---,0.00,VWS V14.00,2013-02-04 00:42:00,
2013-02-03 16:47:00,70.6,41.7,29.95,WSW,255,0.0,0.0,35,0.00,,---,0.00,VWS V14.00,2013-02-04 00:47:00,
2013-02-03 16:52:00,70.4,42.2,29.95,WSW,255,0.0,0.0,36,0.00,,---,0.00,VWS V14.00,2013-02-04 00:52:00,
2013-02-03 16:57:00,70.1,42.7,29.95,WSW,255,0.0,0.0,37,0.00,,---,0.00,VWS V14.00,2013-02-04 00:57:00,
2013-02-03 17:02:00,69.8,42.4,29.95,WSW,255,0.0,0.0,37,0.00,,---,0.00,VWS V14.00,2013-02-04 01:02:00,
2013-02-03 17:07:00,69.5,42.8,29.95,WSW,255,0.0,0.0,38,0.00,,---,0.00,VWS V14.00,2013-02-04 01:07:00,
2013-02-03 17:12:00,69.2,42.5,29.96,WSW,255,0.0,0.0,38,0.00,,---,0.00,VWS V14.00,2013-02-04 01:12:00,
2013-02-03 17:17:00,68.8,42.9,29.95,WSW,255,0.0,0.0,39,0.00,,---,0.00,VWS V14.00,2013-02-04 01:17:00,
2013-02-03 17:22:00,68.4,42.5,29.95,WSW,255,0.0,0.0,39,0.00,,---,0.00,VWS V14.00,2013-02-04 01:22:00,
2013-02-03 17:27:00,68.1,42.2,29.95,WSW,255,0.0,0.0,39,0.00,,---,0.00,VWS V14.00,2013-02-04 01:27:00,
2013-02-03 17:32:00,68.0,42.1,29.95,WSW,255,0.0,0.0,39,0.00,,---,0.00,VWS V14.00,2013-02-04 01:32:00,
2013-02-03 17:37:00,68.1,41.6,29.96,WSW,255,0.0,0.0,38,0.00,,---,0.00,VWS V14.00,2013-02-04 01:37:00,
2013-02-03 17:42:00,68.4,41.8,29.96,WSW,255,0.0,0.0,38,0.00,,---,0.00,VWS V14.00,2013-02-04 01:42:00,
2013-02-03 17:47:00,68.4,41.8,29.96,WSW,255,0.0,0.0,38,0.00,,---,0.00,VWS V14.00,2013-02-04 01:47:00,
2013-02-03 17:52:00,68.4,41.8,29.96,WSW,255,0.0,0.0,38,0.00,,---,0.00,VWS V14.00,2013-02-04 01:52:00,
2013-02-03 17:57:00,67.6,43.1,29.96,WSW,255,0.0,1.0,41,0.00,,---,0.00,VWS V14.00,2013-02-04 01:57:00,
2013-02-03 18:02:00,67.4,42.9,29.96,WSW,255,0.0,2.0,41,0.00,,---,0.00,VWS V14.00,2013-02-04 02:02:00,
2013-02-03 18:07:00,67.3,41.5,29.96,WSW,255,0.0,0.0,39,0.00,,---,0.00,VWS V14.00,2013-02-04 02:07:00,
2013-02-03 18:12:00,67.4,42.3,29.97,WSW,255,1.0,2.0,40,0.00,,---,0.00,VWS V14.00,2013-02-04 02:12:00,
2013-02-03 18:17:00,67.2,42.7,29.97,WSW,255,0.0,0.0,41,0.00,,---,0.00,VWS V14.00,2013-02-04 02:17:00,
2013-02-03 18:22:00,67.0,42.5,29.97,WSW,255,0.0,0.0,41,0.00,,---,0.00,VWS V14.00,2013-02-04 02:22:00,
2013-02-03 18:27:00,66.7,42.3,29.97,WSW,255,0.0,1.0,41,0.00,,---,0.00,VWS V14.00,2013-02-04 02:27:00,
2013-02-03 18:32:00,66.4,42.6,29.97,WSW,255,1.0,2.0,42,0.00,,---,0.00,VWS V14.00,2013-02-04 02:32:00,
2013-02-03 18:37:00,66.1,42.4,29.97,WSW,255,0.0,2.0,42,0.00,,---,0.00,VWS V14.00,2013-02-04 02:37:00,
2013-02-03 18:42:00,66.0,41.7,29.97,WSW,255,2.0,3.0,41,0.00,,---,0.00,VWS V14.00,2013-02-04 02:42:00,
2013-02-03 18:47:00,66.1,41.7,29.97,WSW,255,0.0,0.0,41,0.00,,---,0.00,VWS V14.00,2013-02-04 02:47:00,
2013-02-03 18:52:00,66.2,41.2,29.98,WSW,255,0.0,0.0,40,0.00,,---,0.00,VWS V14.00,2013-02-04 02:52:00,
2013-02-03 18:57:00,66.3,40.0,29.98,WSW,255,0.0,0.0,38,0.00,,---,0.00,VWS V14.00,2013-02-04 02:57:00,
2013-02-03 19:02:00,66.6,38.8,29.98,WSW,255,0.0,0.0,36,0.00,,---,0.00,VWS V14.00,2013-02-04 03:02:00,
2013-02-03 19:07:00,66.7,38.2,29.98,WSW,255,2.0,6.0,35,0.00,,---,0.00,VWS V14.00,2013-02-04 03:07:00,
2013-02-03 19:12:00,66.7,38.2,29.98,WSW,255,2.0,5.0,35,0.00,,---,0.00,VWS V14.00,2013-02-04 03:12:00,
2013-02-03 19:17:00,66.7,38.2,29.98,WSW,255,2.0,5.0,35,0.00,,---,0.00,VWS V14.00,2013-02-04 03:17:00,
2013-02-03 19:22:00,66.4,37.9,29.98,WSW,255,2.0,3.0,35,0.00,,---,0.00,VWS V14.00,2013-02-04 03:22:00,
2013-02-03 19:27:00,65.6,38.0,29.98,WSW,255,2.0,3.0,36,0.00,,---,0.00,VWS V14.00,2013-02-04 03:27:00,
2013-02-03 19:32:00,65.2,38.3,29.98,West,269,6.0,9.0,37,0.00,,---,0.00,VWS V14.00,2013-02-04 03:32:00,
2013-02-03 19:37:00,65.1,38.2,29.98,West,279,3.0,6.0,37,0.00,,---,0.00,VWS V14.00,2013-02-04 03:37:00,
2013-02-03 19:42:00,65.1,38.2,29.99,WNW,286,3.0,5.0,37,0.00,,---,0.00,VWS V14.00,2013-02-04 03:42:00,
2013-02-03 19:47:00,65.2,37.6,29.99,WNW,286,4.0,6.0,36,0.00,,---,0.00,VWS V14.00,2013-02-04 03:47:00,
2013-02-03 19:52:00,65.8,38.1,29.99,WNW,286,3.0,5.0,36,0.00,,---,0.00,VWS V14.00,2013-02-04 03:52:00,
2013-02-03 19:57:00,65.3,37.7,29.99,NNW,336,5.0,15.0,36,0.00,,---,0.00,VWS V14.00,2013-02-04 03:57:00,
2013-02-03 20:02:00,65.2,37.6,29.99,NNW,346,6.0,8.0,36,0.00,,---,0.00,VWS V14.00,2013-02-04 04:02:00,
2013-02-03 20:07:00,65.1,37.5,29.99,North,355,4.0,8.0,36,0.00,,---,0.00,VWS V14.00,2013-02-04 04:07:00,
2013-02-03 20:12:00,65.2,37.6,30.00,North,355,5.0,7.0,36,0.00,,---,0.00,VWS V14.00,2013-02-04 04:12:00,
2013-02-03 20:17:00,65.2,37.6,30.00,North,360,12.0,14.0,36,0.00,,---,0.00,VWS V14.00,2013-02-04 04:17:00,
2013-02-03 20:22:00,65.2,37.6,30.00,North,5,7.0,10.0,36,0.00,,---,0.00,VWS V14.00,2013-02-04 04:22:00,
2013-02-03 20:27:00,65.0,37.4,30.00,North,9,4.0,9.0,36,0.00,,---,0.00,VWS V14.00,2013-02-04 04:27:00,
2013-02-03 20:32:00,65.0,37.4,30.00,North,10,3.0,8.0,36,0.00,,---,0.00,VWS V14.00,2013-02-04 04:32:00,
2013-02-03 20:37:00,64.9,37.3,30.00,North,11,7.0,10.0,36,0.00,,---,0.00,VWS V14.00,2013-02-04 04:37:00,
2013-02-03 20:42:00,64.7,37.8,30.00,NNE,12,4.0,4.0,37,0.00,,---,0.00,VWS V14.00,2013-02-04 04:42:00,
2013-02-03 20:47:00,64.4,37.6,30.00,NNE,12,2.0,7.0,37,0.00,,---,0.00,VWS V14.00,2013-02-04 04:47:00,
2013-02-03 20:52:00,64.8,37.2,30.00,NNE,12,0.0,0.0,36,0.00,,---,0.00,VWS V14.00,2013-02-04 04:52:00,
2013-02-03 20:57:00,65.3,37.0,30.00,NNE,12,0.0,0.0,35,0.00,,---,0.00,VWS V14.00,2013-02-04 04:57:00,
2013-02-03 21:02:00,65.4,37.1,30.00,NNE,12,4.0,7.0,35,0.00,,---,0.00,VWS V14.00,2013-02-04 05:02:00,
2013-02-03 21:07:00,65.8,37.4,30.00,NNE,12,2.0,5.0,35,0.00,,---,0.00,VWS V14.00,2013-02-04 05:07:00,
2013-02-03 21:12:00,66.1,36.9,30.00,NNE,12,4.0,13.0,34,0.00,,---,0.00,VWS V14.00,2013-02-04 05:12:00,
2013-02-03 21:17:00,65.9,37.5,30.00,NNE,12,5.0,8.0,35,0.00,,---,0.00,VWS V14.00,2013-02-04 05:17:00,
2013-02-03 21:22:00,65.4,37.1,30.00,NNE,12,2.0,7.0,35,0.00,,---,0.00,VWS V14.00,2013-02-04 05:22:00,
2013-02-03 21:27:00,65.0,37.4,30.01,NNE,12,4.0,10.0,36,0.00,,---,0.00,VWS V14.00,2013-02-04 05:27:00,
2013-02-03 21:32:00,64.9,37.3,30.01,NNE,12,1.0,2.0,36,0.00,,---,0.00,VWS V14.00,2013-02-04 05:32:00,
2013-02-03 21:37:00,64.3,37.5,30.00,NNE,12,2.0,3.0,37,0.00,,---,0.00,VWS V14.00,2013-02-04 05:37:00,
2013-02-03 21:42:00,64.1,37.3,30.00,NNE,12,2.0,6.0,37,0.00,,---,0.00,VWS V14.00,2013-02-04 05:42:00,
2013-02-03 21:47:00,64.5,37.0,30.00,NNE,12,3.0,8.0,36,0.00,,---,0.00,VWS V14.00,2013-02-04 05:47:00,
2013-02-03 21:52:00,64.7,37.2,30.00,NNE,12,3.0,6.0,36,0.00,,---,0.00,VWS V14.00,2013-02-04 05:52:00,
2013-02-03 21:58:00,64.7,37.2,30.00,NNE,12,8.0,13.0,36,0.00,,---,0.00,VWS V14.00,2013-02-04 05:58:00,
2013-02-03 22:03:00,64.9,36.6,30.00,NNE,12,3.0,6.0,35,0.00,,---,0.00,VWS V14.00,2013-02-04 06:03:00,
2013-02-03 22:08:00,65.0,36.7,30.00,NNE,12,6.0,13.0,35,0.00,,---,0.00,VWS V14.00,2013-02-04 06:08:00,
2013-02-03 22:13:00,65.5,37.2,30.00,NNE,14,9.0,9.0,35,0.00,,---,0.00,VWS V14.00,2013-02-04 06:13:00,
2013-02-03 22:18:00,66.0,36.8,30.00,NNE,19,3.0,8.0,34,0.00,,---,0.00,VWS V14.00,2013-02-04 06:18:00,
2013-02-03 22:23:00,65.9,36.8,30.00,NNE,17,4.0,10.0,34,0.00,,---,0.00,VWS V14.00,2013-02-04 06:23:00,
2013-02-03 22:28:00,65.5,37.2,30.00,NNE,15,4.0,9.0,35,0.00,,---,0.00,VWS V14.00,2013-02-04 06:28:00,
2013-02-03 22:33:00,64.7,37.2,30.00,NNE,15,4.0,11.0,36,0.00,,---,0.00,VWS V14.00,2013-02-04 06:33:00,
2013-02-03 22:38:00,63.7,37.0,30.00,NNE,16,4.0,14.0,37,0.00,,---,0.00,VWS V14.00,2013-02-04 06:38:00,
2013-02-03 22:43:00,63.4,36.7,30.00,NNE,16,4.0,10.0,37,0.00,,---,0.00,VWS V14.00,2013-02-04 06:43:00,
2013-02-03 22:48:00,63.2,36.5,30.00,NNE,17,13.0,14.0,37,0.00,,---,0.00,VWS V14.00,2013-02-04 06:48:00,
2013-02-03 22:53:00,63.6,36.9,30.00,NNE,24,6.0,17.0,37,0.00,,---,0.00,VWS V14.00,2013-02-04 06:53:00,
2013-02-03 22:58:00,63.5,36.8,30.00,NNE,23,11.0,14.0,37,0.00,,---,0.00,VWS V14.00,2013-02-04 06:58:00,
2013-02-03 23:03:00,63.3,36.6,30.00,NNE,23,2.0,8.0,37,0.00,,---,0.00,VWS V14.00,2013-02-04 07:03:00,
2013-02-03 23:08:00,63.4,36.7,30.00,NNE,22,6.0,13.0,37,0.00,,---,0.00,VWS V14.00,2013-02-04 07:08:00,
2013-02-03 23:13:00,63.7,36.3,30.00,NNE,23,2.0,13.0,36,0.00,,---,0.00,VWS V14.00,2013-02-04 07:13:00,
2013-02-03 23:18:00,63.8,36.4,30.00,NNE,24,14.0,16.0,36,0.00,,---,0.00,VWS V14.00,2013-02-04 07:18:00,
2013-02-03 23:23:00,63.9,36.5,30.00,NNE,24,5.0,10.0,36,0.00,,---,0.00,VWS V14.00,2013-02-04 07:23:00,
2013-02-03 23:28:00,63.9,36.5,30.00,NNE,24,5.0,8.0,36,0.00,,---,0.00,VWS V14.00,2013-02-04 07:28:00,
2013-02-03 23:33:00,63.9,36.5,30.00,NNE,24,2.0,11.0,36,0.00,,---,0.00,VWS V14.00,2013-02-04 07:33:00,
2013-02-03 23:38:00,64.1,36.6,30.01,NNE,24,12.0,14.0,36,0.00,,---,0.00,VWS V14.00,2013-02-04 07:38:00,
2013-02-03 23:43:00,64.9,35.9,30.01,NNE,22,4.0,12.0,34,0.00,,---,0.00,VWS V14.00,2013-02-04 07:43:00,
2013-02-03 23:48:00,65.1,36.1,30.01,NNE,21,5.0,14.0,34,0.00,,---,0.00,VWS V14.00,2013-02-04 07:48:00,
2013-02-03 23:53:00,65.4,36.3,30.00,NNE,21,9.0,9.0,34,0.00,,---,0.00,VWS V14.00,2013-02-04 07:53:00,
2013-02-03 23:58:00,65.2,36.2,30.00,NNE,21,5.0,5.0,34,0.00,,---,0.00,VWS V14.00,2013-02-04 07:58:00,